Tracking 19576 objects as of 17-Feb-2019
HD Live streaming from Space Station
objects crossing your sky now

THORAD DELTA 1 DEB

Track THORAD DELTA 1 DEB now!
10-day predictions


NORAD ID: 8566
Int'l Code: 1974-089DD
Perigee: 1,339.4 km
Apogee: 1,467.6 km
Inclination: 101.6 °
Period: 113.7 minutes
Semi major axis: 7774 km
RCS: 0.0546 m2 (small)
Launch date: November 15, 1974
Source: United States (US)
Launch site: AIR FORCE WESTERN TEST RANGE (AFWTR)

Note: This is SATELLITE DEBRIS
aabbcc
Your satellite tracking list
Your tracking list is empty




NASA's NSSDC Master Catalog

Two Line Element Set (TLE):
1  8566U 74089DD  19047.64486317 -.00000078 +00000-0 -16740-3 0  9991
2  8566 101.6252 107.9949 0082391 014.4591 138.3934 12.66467180043009
Source of the keplerian elements: AFSPC